Time,TemperatureF,DewpointF,PressureIn,WindDirection,WindDirectionDegrees,WindSpeedMPH,WindSpeedGustMPH,Humidity,HourlyPrecipIn,Conditions,Clouds,dailyrainin,SoftwareType,DateUTC
2013-06-06 00:15:00,56.0,52.0,30.10,SW,231,0.0,0.0,85,0.00,,,0.00,weatherlink.com 1.10,2013-06-06 04:15:00,
2013-06-06 00:30:00,56.4,51.0,30.10,ESE,123,0.0,2.0,83,0.00,,,0.00,weatherlink.com 1.10,2013-06-06 04:30:00,
2013-06-06 00:45:00,58.5,52.0,30.10,East,99,1.0,4.0,80,0.00,,,0.00,weatherlink.com 1.10,2013-06-06 04:45:00,
2013-06-06 01:00:00,60.7,53.0,30.11,South,178,0.0,1.0,76,0.00,,,0.00,weatherlink.com 1.10,2013-06-06 05:00:00,
2013-06-06 01:15:00,59.1,53.0,30.11,West,271,0.0,3.0,81,0.00,,,0.00,weatherlink.com 1.10,2013-06-06 05:15:00,
2013-06-06 01:30:00,58.8,53.0,30.10,West,271,0.0,1.0,82,0.00,,,0.00,weatherlink.com 1.10,2013-06-06 05:30:00,
2013-06-06 01:45:00,58.4,54.0,30.10,West,271,0.0,1.0,85,0.00,,,0.00,weatherlink.com 1.10,2013-06-06 05:45:00,
2013-06-06 02:00:00,58.0,54.0,30.10,West,271,0.0,1.0,87,0.00,,,0.00,weatherlink.com 1.10,2013-06-06 06:00:00,
2013-06-06 02:15:00,57.3,54.0,30.10,West,271,0.0,0.0,88,0.00,,,0.00,weatherlink.com 1.10,2013-06-06 06:15:00,
2013-06-06 02:30:00,56.9,54.0,30.10,West,271,0.0,1.0,89,0.00,,,0.00,weatherlink.com 1.10,2013-06-06 06:30:00,
2013-06-06 02:45:00,56.8,54.0,30.09,West,271,0.0,1.0,90,0.00,,,0.00,weatherlink.com 1.10,2013-06-06 06:45:00,
2013-06-06 03:00:00,56.9,54.0,30.09,West,271,0.0,1.0,90,0.00,,,0.00,weatherlink.com 1.10,2013-06-06 07:00:00,
2013-06-06 03:15:00,56.6,54.0,30.09,West,271,0.0,0.0,91,0.00,,,0.00,weatherlink.com 1.10,2013-06-06 07:15:00,
2013-06-06 03:30:00,56.7,55.0,30.07,SSE,159,0.0,3.0,92,0.00,,,0.00,weatherlink.com 1.10,2013-06-06 07:30:00,
2013-06-06 03:45:00,57.4,55.0,30.07,SSE,159,0.0,1.0,90,0.00,,,0.00,weatherlink.com 1.10,2013-06-06 07:45:00,
2013-06-06 04:00:00,57.4,54.0,30.07,SSE,159,0.0,0.0,89,0.00,,,0.00,weatherlink.com 1.10,2013-06-06 08:00:00,
2013-06-06 04:15:00,57.2,54.0,30.08,SSE,159,0.0,0.0,89,0.00,,,0.00,weatherlink.com 1.10,2013-06-06 08:15:00,
2013-06-06 04:30:00,56.5,54.0,30.08,SSE,159,0.0,0.0,90,0.00,,,0.00,weatherlink.com 1.10,2013-06-06 08:30:00,
2013-06-06 04:45:00,56.2,54.0,30.07,SSE,159,0.0,1.0,91,0.00,,,0.00,weatherlink.com 1.10,2013-06-06 08:45:00,
2013-06-06 05:00:00,56.0,54.0,30.08,SSE,159,0.0,0.0,92,0.00,,,0.00,weatherlink.com 1.10,2013-06-06 09:00:00,
2013-06-06 05:15:00,55.9,54.0,30.08,SSE,159,0.0,0.0,92,0.00,,,0.00,weatherlink.com 1.10,2013-06-06 09:15:00,
2013-06-06 05:30:00,56.3,54.0,30.07,SSE,159,0.0,1.0,93,0.00,,,0.00,weatherlink.com 1.10,2013-06-06 09:30:00,
2013-06-06 05:45:00,56.9,55.0,30.07,SSE,159,0.0,0.0,92,0.00,,,0.00,weatherlink.com 1.10,2013-06-06 09:45:00,
2013-06-06 06:00:00,57.2,54.0,30.07,SSE,159,0.0,1.0,90,0.00,,,0.00,weatherlink.com 1.10,2013-06-06 10:00:00,
2013-06-06 06:15:00,58.0,55.0,30.08,SSE,159,0.0,1.0,88,0.00,,,0.00,weatherlink.com 1.10,2013-06-06 10:15:00,
2013-06-06 06:30:00,58.9,54.0,30.08,NE,53,0.0,1.0,84,0.00,,,0.00,weatherlink.com 1.10,2013-06-06 10:30:00,
2013-06-06 06:45:00,59.5,54.0,30.08,NE,53,0.0,2.0,83,0.00,,,0.00,weatherlink.com 1.10,2013-06-06 10:45:00,
2013-06-06 07:00:00,60.1,55.0,30.08,NE,53,0.0,2.0,82,0.00,,,0.00,weatherlink.com 1.10,2013-06-06 11:00:00,
2013-06-06 07:15:00,60.4,55.0,30.08,NE,53,0.0,1.0,82,0.00,,,0.00,weatherlink.com 1.10,2013-06-06 11:15:00,
2013-06-06 07:30:00,61.1,55.0,30.08,NE,53,0.0,1.0,80,0.00,,,0.00,weatherlink.com 1.10,2013-06-06 11:30:00,
2013-06-06 07:45:00,62.6,55.0,30.08,East,89,0.0,5.0,77,0.00,,,0.00,weatherlink.com 1.10,2013-06-06 11:45:00,
2013-06-06 08:00:00,63.5,54.0,30.08,SE,134,0.0,8.0,72,0.00,,,0.00,weatherlink.com 1.10,2013-06-06 12:00:00,
2013-06-06 08:15:00,64.2,55.0,30.07,SSE,160,3.0,8.0,71,0.00,,,0.00,weatherlink.com 1.10,2013-06-06 12:15:00,
2013-06-06 08:30:00,65.1,55.0,30.06,East,88,1.0,3.0,71,0.00,,,0.00,weatherlink.com 1.10,2013-06-06 12:30:00,
2013-06-06 08:46:00,64.8,54.0,30.07,East,98,5.0,6.0,69,0.00,,,0.00,weatherlink.com 1.10,2013-06-06 12:46:00,
2013-06-06 09:01:00,64.8,54.0,30.07,ESE,113,1.0,5.0,68,0.00,,,0.00,weatherlink.com 1.10,2013-06-06 13:01:00,
2013-06-06 09:16:00,64.8,55.0,30.07,SW,219,0.0,7.0,71,0.00,,,0.00,weatherlink.com 1.10,2013-06-06 13:16:00,
2013-06-06 09:31:00,64.9,54.0,30.06,SSE,166,2.0,7.0,69,0.00,,,0.00,weatherlink.com 1.10,2013-06-06 13:31:00,
2013-06-06 09:46:00,65.1,55.0,30.06,SE,144,0.0,6.0,70,0.00,,,0.00,weatherlink.com 1.10,2013-06-06 13:46:00,
2013-06-06 10:01:00,65.4,55.0,30.06,SSE,159,0.0,7.0,69,0.00,,,0.00,weatherlink.com 1.10,2013-06-06 14:01:00,
2013-06-06 10:16:00,65.4,55.0,30.05,ESE,105,0.0,8.0,70,0.00,,,0.00,weatherlink.com 1.10,2013-06-06 14:16:00,
2013-06-06 10:31:00,65.6,56.0,30.04,ESE,122,0.0,4.0,70,0.00,,,0.00,weatherlink.com 1.10,2013-06-06 14:31:00,
2013-06-06 10:46:00,65.9,55.0,30.05,East,101,0.0,5.0,69,0.00,,,0.00,weatherlink.com 1.10,2013-06-06 14:46:00,
2013-06-06 11:01:00,66.6,55.0,30.05,East,88,1.0,6.0,67,0.00,,,0.00,weatherlink.com 1.10,2013-06-06 15:01:00,
2013-06-06 11:16:00,66.3,55.0,30.04,SSE,152,4.0,6.0,68,0.00,,,0.00,weatherlink.com 1.10,2013-06-06 15:16:00,
2013-06-06 11:46:00,66.7,56.0,30.05,SSW,200,3.0,6.0,68,0.00,,,0.00,weatherlink.com 1.10,2013-06-06 15:46:00,
2013-06-06 12:31:00,67.2,55.0,30.04,ESE,114,4.0,6.0,65,0.00,,,0.00,weatherlink.com 1.10,2013-06-06 16:31:00,
2013-06-06 12:46:00,67.5,55.0,30.03,SE,124,1.0,5.0,65,0.00,,,0.00,weatherlink.com 1.10,2013-06-06 16:46:00,
2013-06-06 13:01:00,67.7,55.0,30.03,ESE,123,2.0,4.0,64,0.00,,,0.00,weatherlink.com 1.10,2013-06-06 17:01:00,
2013-06-06 13:16:00,68.2,56.0,30.02,East,98,2.0,6.0,65,0.00,,,0.00,weatherlink.com 1.10,2013-06-06 17:16:00,
2013-06-06 13:31:00,68.6,56.0,30.02,ESE,102,1.0,7.0,65,0.00,,,0.00,weatherlink.com 1.10,2013-06-06 17:31:00,
2013-06-06 13:46:00,68.4,56.0,30.01,SE,144,5.0,9.0,64,0.00,,,0.00,weatherlink.com 1.10,2013-06-06 17:46:00,
2013-06-06 14:01:00,68.1,54.0,30.01,SE,134,3.0,6.0,62,0.00,,,0.00,weatherlink.com 1.10,2013-06-06 18:01:00,
2013-06-06 14:31:00,68.9,57.0,30.01,South,186,1.0,6.0,65,0.00,,,0.00,weatherlink.com 1.10,2013-06-06 18:31:00,
2013-06-06 15:16:00,69.4,57.0,29.99,East,91,3.0,10.0,66,0.00,,,0.00,weatherlink.com 1.10,2013-06-06 19:16:00,
2013-06-06 15:31:00,68.6,57.0,29.99,East,97,7.0,8.0,66,0.00,,,0.00,weatherlink.com 1.10,2013-06-06 19:31:00,
2013-06-06 15:46:00,67.4,58.0,29.97,SSE,157,2.0,10.0,72,0.00,,,0.00,weatherlink.com 1.10,2013-06-06 19:46:00,
2013-06-06 16:01:00,66.5,59.0,29.97,East,97,1.0,5.0,78,0.00,,,0.00,weatherlink.com 1.10,2013-06-06 20:01:00,
2013-06-06 16:16:00,66.6,61.0,29.97,East,97,0.0,1.0,81,0.00,,,0.00,weatherlink.com 1.10,2013-06-06 20:16:00,
2013-06-06 16:31:00,66.6,61.0,29.97,East,97,0.0,1.0,81,0.00,,,0.00,weatherlink.com 1.10,2013-06-06 20:31:00,
2013-06-06 16:47:00,66.1,62.0,29.97,East,97,0.0,1.0,85,0.00,,,0.00,weatherlink.com 1.10,2013-06-06 20:47:00,
2013-06-06 17:01:00,65.3,61.0,29.97,East,97,0.0,2.0,86,0.00,,,0.00,weatherlink.com 1.10,2013-06-06 21:01:00,
2013-06-06 17:16:00,64.1,61.0,29.98,East,97,0.0,3.0,90,0.00,,,0.00,weatherlink.com 1.10,2013-06-06 21:16:00,
2013-06-06 17:31:00,63.6,61.0,29.98,East,97,0.0,1.0,92,0.00,,,0.00,weatherlink.com 1.10,2013-06-06 21:31:00,
2013-06-06 17:46:00,63.5,62.0,29.97,East,97,0.0,1.0,94,0.00,,,0.00,weatherlink.com 1.10,2013-06-06 21:46:00,
2013-06-06 18:01:00,63.0,62.0,29.98,East,97,0.0,1.0,95,0.00,,,0.00,weatherlink.com 1.10,2013-06-06 22:01:00,
2013-06-06 18:16:00,62.3,61.0,29.97,East,97,0.0,5.0,94,0.00,,,0.00,weatherlink.com 1.10,2013-06-06 22:16:00,
2013-06-06 18:31:00,62.3,61.0,29.98,East,86,0.0,5.0,95,0.00,,,0.00,weatherlink.com 1.10,2013-06-06 22:31:00,
2013-06-06 18:46:00,62.2,61.0,29.98,East,86,0.0,1.0,95,0.00,,,0.00,weatherlink.com 1.10,2013-06-06 22:46:00,
2013-06-06 19:01:00,62.4,61.0,29.97,East,86,0.0,3.0,95,0.00,,,0.00,weatherlink.com 1.10,2013-06-06 23:01:00,
2013-06-06 19:16:00,62.3,61.0,29.97,East,86,1.0,2.0,96,0.00,,,0.00,weatherlink.com 1.10,2013-06-06 23:16:00,
2013-06-06 19:32:00,62.3,61.0,29.96,East,90,2.0,6.0,96,0.00,,,0.00,weatherlink.com 1.10,2013-06-06 23:32:00,
2013-06-06 19:47:00,62.5,61.0,29.96,ESE,113,0.0,5.0,95,0.00,,,0.00,weatherlink.com 1.10,2013-06-06 23:47:00,
2013-06-06 20:02:00,62.6,61.0,29.96,East,93,0.0,5.0,95,0.00,,,0.00,weatherlink.com 1.10,2013-06-07 00:02:00,
2013-06-06 20:17:00,62.5,61.0,29.96,East,95,0.0,6.0,95,0.00,,,0.00,weatherlink.com 1.10,2013-06-07 00:17:00,
2013-06-06 20:32:00,62.4,61.0,29.95,East,90,0.0,5.0,95,0.00,,,0.00,weatherlink.com 1.10,2013-06-07 00:32:00,
2013-06-06 20:47:00,62.5,61.0,29.95,ESE,105,0.0,4.0,95,0.00,,,0.00,weatherlink.com 1.10,2013-06-07 00:47:00,
2013-06-06 21:02:00,63.0,62.0,29.94,SE,134,2.0,3.0,95,0.00,,,0.00,weatherlink.com 1.10,2013-06-07 01:02:00,
2013-06-06 21:17:00,63.1,62.0,29.94,ESE,104,2.0,5.0,95,0.00,,,0.00,weatherlink.com 1.10,2013-06-07 01:17:00,
2013-06-06 21:32:00,63.2,62.0,29.94,ESE,105,0.0,4.0,95,0.00,,,0.00,weatherlink.com 1.10,2013-06-07 01:32:00,
2013-06-06 21:47:00,63.2,62.0,29.94,ENE,78,0.0,4.0,95,0.00,,,0.00,weatherlink.com 1.10,2013-06-07 01:47:00,
2013-06-06 22:02:00,63.3,62.0,29.94,SSE,154,0.0,8.0,95,0.00,,,0.00,weatherlink.com 1.10,2013-06-07 02:02:00,
2013-06-06 22:17:00,63.3,62.0,29.94,East,101,1.0,6.0,95,0.00,,,0.00,weatherlink.com 1.10,2013-06-07 02:17:00,
2013-06-06 22:32:00,63.5,62.0,29.94,SSE,153,4.0,6.0,95,0.00,,,0.00,weatherlink.com 1.10,2013-06-07 02:32:00,
2013-06-06 22:47:00,63.8,62.0,29.94,South,186,4.0,11.0,95,0.00,,,0.00,weatherlink.com 1.10,2013-06-07 02:47:00,
2013-06-06 23:02:00,64.0,62.0,29.93,SSE,165,1.0,14.0,94,0.00,,,0.00,weatherlink.com 1.10,2013-06-07 03:02:00,
2013-06-06 23:17:00,64.1,62.0,29.93,SSE,149,1.0,7.0,94,0.00,,,0.00,weatherlink.com 1.10,2013-06-07 03:17:00,
2013-06-06 23:32:00,64.1,62.0,29.93,ESE,119,3.0,9.0,94,0.00,,,0.00,weatherlink.com 1.10,2013-06-07 03:32:00,
2013-06-06 23:47:00,64.2,63.0,29.93,SSE,162,1.0,9.0,95,0.00,,,0.00,weatherlink.com 1.10,2013-06-07 03:47:00,